Погода в Горнешно

Россия / Новгородская область     58°16′32″N   33°14′21″E
темп.,
°C
ветер,
м/с
пор.,
м/с
влажн.,
%
обл.,
%
осадки,
мм/ч
давл.,
гПа
погр.,
м
16 мая, вс
вс1600:00+11ююз25987 0.3 100496
03:00+10ююз279819 1.4 1005154
06:00+11юз3109848 0.0 1006350
09:00+13юз4890100 0.0 1007492
12:00+16зюз4778100 0.0 1008986
15:00+18з466594 0.1 10091239
18:00+17зюз3566100 0.1 1010810
21:00+13зюз22921 0.1 101235
17 мая, пн
пн1700:00+11ююз119415 0.0 101310
03:00+10юв22952 0.0 101423
06:00+12вюв259011 0.0 1014117
09:00+18юв4663100 0.0 1014632
12:00+21юв4750100 0.0 10131680
15:00+22юв4650100 0.0 10121841
18:00+22вюв475496 0.0 10111605
21:00+17в5147699 0.2 1010545
18 мая, вт
вт1800:00+16вюв51586100 0.1 1009511
03:00+15вюв4119777 0.1 1007316
06:00+15вюв41293100 0.0 1006392
09:00+21юв51069100 0.0 1005632
12:00+25юв6134667 0.0 10041760
15:00+27юв6114378 0.0 10032124
18:00+25ююв61353100 0.0 10022128
21:00+19ююв61476100 0.8 10041063
19 мая, ср
ср1900:00+16юв4138562 0.7 1004692
03:00+15юв413871 0.7 1003651
06:00+14ююв4118743 0.0 1004468
09:00+19ююв5106676 0.0 1004941
12:00+22ююв585486 0.2 10041786
15:00+20юв6964100 0.6 1004849
18:00+18ююз267891 0.6 1004370
21:00+15всв3692100 1.3 1004162
20 мая, чт
чт2000:00+14в399698 0.1 1002294
03:00+9юв3996100 0.3 1001381
06:00+9юз3796100 3.1 1000510
09:00+10юз4897100 4.0 1002827
12:00+10зюз4109392 0.5 1005824
15:00+13зюз510737 1.3 10061403
18:00+15зюз5115674 0.6 10072040
21:00+11юз512754 0.6 1009718